Date String (YYYY-MM-DD hh:mm:ss) UTC,Instrument flags,Ambient pressure (hPa),Sample flow (lpm),Bypass flow (lpm),Sample temperature (°C),Ambient temperature (°C),ASC tube jacket temperature (°C),LED temperature (°C),Box temperature (°C),Sample RH (%),Span deviation,Mass concentration (μg/m³),Mass concentration (μg/m³),Mass concentration (μg/m³)
DateTimeUTC,F1_M11,P_M11,Q1_M11,Q2_M11,T1_M11,T2_M11,T3_M11,T4_M11,T5_M11,U1_M11,ZSPAN_M11,X0_M11,X2_M11,X1_M11
2022-03-27 15:00:00,,0824.2,4.99,0.00,26.2,25.1,00.0,35.1,27.9,13.8,0000.0,0014.26,0005.98,0004.89
2022-03-27 15:01:00,,0824.2,5.00,0.00,26.2,25.1,00.0,35.1,28.0,13.7,0000.0,0014.73,0005.98,0004.89
2022-03-27 15:02:00,,0824.2,5.00,0.00,26.2,25.2,00.0,35.1,28.0,13.7,0000.0,0015.89,0005.97,0004.90
2022-03-27 15:03:00,,0824.2,5.00,0.00,26.2,25.2,00.0,35.1,27.9,13.8,0000.0,0016.00,0005.98,0004.92
2022-03-27 15:04:00,,0824.2,5.00,0.00,26.2,25.2,00.0,35.1,27.9,14.0,0000.0,0015.81,0005.99,0004.92
2022-03-27 15:05:00,,0824.2,5.00,0.00,26.2,25.2,00.0,35.1,27.9,13.9,0000.0,0016.25,0005.97,0004.92
2022-03-27 15:06:00,,0824.1,5.00,0.00,26.2,25.2,00.0,35.1,28.0,13.7,0000.0,0016.09,0005.97,0004.93
2022-03-27 15:07:00,,0824.2,5.00,0.00,26.2,25.2,00.0,35.2,28.0,13.6,0000.0,0015.55,0005.95,0004.92
2022-03-27 15:08:00,,0824.2,5.00,0.00,26.2,25.2,00.0,35.1,28.0,13.6,0000.0,0016.05,0005.89,0004.91
2022-03-27 15:09:00,,0824.2,5.00,0.00,26.2,25.2,00.0,35.1,28.0,13.7,0000.0,0016.98,0005.90,0004.91
2022-03-27 15:10:00,,0824.2,5.00,0.00,26.2,25.1,00.0,35.1,27.9,13.7,0000.0,0016.87,0005.92,0004.90
2022-03-27 15:11:00,,0824.2,5.00,0.00,26.2,25.1,00.0,35.1,28.0,13.7,0000.0,0017.20,0005.90,0004.89
2022-03-27 15:12:00,,0824.2,5.00,0.00,26.2,25.1,00.0,35.1,28.0,13.7,0000.0,0017.07,0005.88,0004.89
2022-03-27 15:13:00,,0824.1,4.99,0.00,26.2,25.1,00.0,35.1,28.0,13.7,0000.0,0016.05,0005.84,0004.89
2022-03-27 15:14:00,,0824.1,5.01,0.00,26.2,25.1,00.0,35.1,28.0,13.8,0000.0,0016.38,0005.85,0004.88
2022-03-27 15:15:00,,0824.2,5.00,0.00,26.2,25.1,00.0,35.1,28.0,13.9,0000.0,0017.26,0005.86,0004.87
2022-03-27 15:16:00,,0824.1,4.99,0.00,26.2,25.1,00.0,35.2,27.9,13.9,0000.0,0017.18,0005.90,0004.86
2022-03-27 15:17:00,,0824.2,4.99,0.00,26.2,25.1,00.0,35.1,28.0,14.0,0000.0,0016.95,0005.90,0004.86
2022-03-27 15:18:00,,0824.2,5.00,0.00,26.1,25.1,00.0,35.1,28.0,13.9,0000.0,0016.83,0005.95,0004.86
2022-03-27 15:19:00,,0824.2,5.00,0.00,26.2,25.1,00.0,35.1,27.9,13.9,0000.0,0017.09,0005.98,0004.87
2022-03-27 15:20:00,,0824.2,5.00,0.00,26.1,25.1,00.0,35.1,27.9,13.8,0000.7,0016.78,0005.95,0004.87
2022-03-27 15:21:00,,0824.2,5.00,0.00,26.1,25.1,00.0,35.1,27.9,13.8,0000.9,0017.58,0005.95,0004.88
2022-03-27 15:22:00,,0824.2,5.00,0.00,26.1,25.1,00.0,35.1,27.9,13.9,0000.0,0017.68,0005.90,0004.88
2022-03-27 15:23:00,,0824.2,5.00,0.00,26.1,25.1,00.0,35.1,27.9,14.1,0000.0,0017.76,0005.91,0004.87
2022-03-27 15:24:00,,0824.2,5.00,0.00,26.1,25.1,00.0,35.1,27.9,14.1,0000.0,0017.65,0005.93,0004.88
2022-03-27 15:25:00,,0824.2,5.00,0.00,26.1,25.1,00.0,35.1,27.9,14.1,0000.1,0017.87,0005.90,0004.88
2022-03-27 15:26:00,,0824.2,5.00,0.00,26.1,25.0,00.0,35.1,27.9,14.1,0000.8,0016.97,0005.86,0004.90
2022-03-27 15:27:00,,0824.2,4.99,0.00,26.1,25.0,00.0,35.1,27.9,14.1,0000.6,0016.31,0005.80,0004.90
2022-03-27 15:28:00,,0824.2,5.00,0.00,26.1,25.0,00.0,35.1,27.9,14.1,0000.6,0016.48,0005.79,0004.90
2022-03-27 15:29:00,,0824.2,5.00,0.00,26.1,25.0,00.0,35.1,27.9,14.1,0000.1,0016.95,0005.79,0004.90
2022-03-27 15:30:00,,0824.1,4.98,0.00,26.1,25.0,00.0,35.1,27.9,14.2,0000.0,0016.65,0005.79,0004.92
2022-03-27 15:31:00,,0824.3,5.00,0.00,26.1,25.0,00.0,35.1,27.9,14.3,0000.0,0015.81,0005.82,0004.93
2022-03-27 15:32:00,,0824.3,5.00,0.00,26.1,25.0,00.0,35.1,27.9,14.1,0000.0,0014.98,0005.82,0004.92
2022-03-27 15:33:00,,0824.2,5.00,0.00,26.0,25.0,00.0,35.1,27.8,14.0,0000.0,0013.88,0005.87,0004.94
2022-03-27 15:34:00,,0824.3,5.00,0.00,26.0,25.0,00.0,35.1,27.9,14.1,0000.0,0013.99,0005.93,0004.95
2022-03-27 15:35:00,,0824.2,5.00,0.00,26.0,25.0,00.0,35.0,27.8,14.2,0000.0,0013.97,0005.96,0004.96
2022-03-27 15:36:00,,0824.2,5.00,0.00,26.0,25.0,00.0,35.0,27.9,14.1,0000.0,0013.51,0005.97,0004.95
2022-03-27 15:37:00,,0824.2,5.00,0.00,26.1,25.1,00.0,35.0,27.8,14.2,0000.0,0013.84,0005.99,0004.94
2022-03-27 15:38:00,,0824.2,5.00,0.00,26.0,25.0,00.0,35.0,27.8,14.1,0000.0,0014.65,0006.05,0004.96
2022-03-27 15:39:00,,0824.2,5.00,0.00,26.0,25.0,00.0,35.0,27.8,14.1,0000.0,0014.57,0006.05,0004.96
2022-03-27 15:40:00,,0824.3,5.00,0.00,26.0,25.0,00.0,35.0,27.8,14.1,0000.0,0014.11,0006.01,0004.94
2022-03-27 15:41:00,,0824.3,5.00,0.00,26.0,25.0,00.0,35.0,27.8,14.0,0000.0,0013.76,0006.03,0004.92
2022-03-27 15:42:00,,0824.3,5.00,0.00,26.0,25.0,00.0,35.0,27.8,13.9,0000.0,0013.74,0005.99,0004.91
2022-03-27 15:43:00,,0824.3,5.01,0.00,26.0,25.0,00.0,35.0,27.8,13.9,0000.0,0015.01,0005.94,0004.91
2022-03-27 15:44:00,,0824.3,4.99,0.00,26.0,25.0,00.0,35.0,27.8,13.9,0000.0,0016.04,0005.92,0004.89
2022-03-27 15:45:00,,0824.3,5.00,0.00,26.0,25.0,00.0,35.0,27.8,14.0,0000.0,0015.54,0005.87,0004.87
2022-03-27 15:46:00,,0824.3,5.00,0.00,26.0,25.0,00.0,35.0,27.8,14.0,0000.0,0015.93,0005.84,0004.85
2022-03-27 15:47:00,,0824.3,4.99,0.00,26.0,25.0,00.0,35.0,27.8,14.0,0000.0,0015.98,0005.86,0004.85
2022-03-27 15:48:00,,0824.3,5.00,0.00,26.0,25.0,00.0,35.0,27.8,13.9,0000.0,0017.40,0005.87,0004.84
2022-03-27 15:49:00,,0824.3,4.99,0.00,26.0,25.0,00.0,35.0,27.8,14.0,0000.0,0017.12,0005.83,0004.83
2022-03-27 15:50:00,,0824.3,5.00,0.00,26.0,25.0,00.0,35.0,27.8,14.0,0000.0,0017.28,0005.81,0004.82
2022-03-27 15:51:00,,0824.3,5.00,0.00,26.0,25.0,00.0,35.0,27.8,14.2,0000.0,0016.82,0005.82,0004.83
2022-03-27 15:52:00,,0824.3,5.01,0.00,26.0,25.0,00.0,35.0,27.8,14.0,0000.0,0016.52,0005.82,0004.84
2022-03-27 15:53:00,,0824.3,5.00,0.00,26.0,24.9,00.0,35.0,27.8,14.0,0000.0,0016.34,0005.83,0004.84
2022-03-27 15:54:00,,0824.3,5.00,0.00,25.9,24.8,00.0,35.0,27.7,14.0,0000.0,0014.80,0005.81,0004.84
2022-03-27 15:55:00,,0824.3,5.00,0.00,25.9,24.8,00.0,35.0,27.7,14.0,0000.0,0014.07,0005.81,0004.86
2022-03-27 15:56:00,,0824.3,5.00,0.00,25.9,24.8,00.0,34.9,27.7,14.0,0000.0,0014.98,0005.87,0004.87
2022-03-27 15:57:00,,0824.4,5.00,0.00,25.9,24.9,00.0,34.9,27.7,14.1,0000.0,0015.48,0005.86,0004.88
2022-03-27 15:58:00,,0824.4,5.00,0.00,25.9,24.9,00.0,34.9,27.7,14.1,0000.0,0015.71,0005.83,0004.89
2022-03-27 15:59:00,,0824.4,5.00,0.00,26.0,25.0,00.0,34.9,27.7,14.1,0000.0,0014.93,0005.81,0004.90
